When you browse on this site, cookies collect data to enhance your experience and personalize the content and advertising you see.
Visit our Privacy Policy to learn more. By continuing to use the site, you agree to this use of cookies and data.
  • In Slovakia
  • List of Countries
  • For 7 days
  • Water Temperature
  • Satellite Maps
  • Weather Map
  • Weather Widgets
  • user-avatar
    Login

    Hourly Weather Jegliniszki

    Today, 19 February, Tuesday

    Time Temperature Precipitation Wind Pressure Humidity
    00:00 0°C° 0 mm 4 mps 742 mmHg 92%
    01:00 0°C° 0 mm 4 mps 741 mmHg 92%
    02:00 0°C° 0 mm 5 mps 741 mmHg 93%
    03:00 -1°C° 0 mm 5 mps 740 mmHg 93%
    04:00 -1°C° 0 mm 5 mps 740 mmHg 94%
    05:00 -1°C° 0 mm 5 mps 739 mmHg 94%
    06:00 -1°C° 0 mm 5 mps 738 mmHg 94%
    07:00 -1°C° 0 mm 5 mps 738 mmHg 93%
    08:00 -1°C° 0 mm 5 mps 737 mmHg 93%
    09:00 0°C° 0 mm 5 mps 737 mmHg 87%
    10:00 +1°C° 0 mm 5 mps 737 mmHg 81%
    11:00 +2°C° 0 mm 6 mps 736 mmHg 75%
    12:00 +3°C° 0 mm 6 mps 736 mmHg 70%
    13:00 +4°C° 0 mm 6 mps 735 mmHg 65%
    14:00 +7°C° 0 mm 6 mps 735 mmHg 61%
    15:00 +5°C° 0 mm 6 mps 734 mmHg 63%
    16:00 +5°C° 0 mm 6 mps 734 mmHg 64%
    17:00 +6°C° 0 mm 5 mps 734 mmHg 66%
    18:00 +5°C° 0.1 mm 5 mps 734 mmHg 72%
    19:00 +3°C° 0.1 mm 5 mps 734 mmHg 79%
    20:00 +2°C° 0.1 mm 5 mps 734 mmHg 85%
    21:00 +2°C° 0.3 mm 5 mps 733 mmHg 85%
    22:00 +2°C° 0.3 mm 5 mps 733 mmHg 84%
    23:00 +2°C° 0.3 mm 5 mps 733 mmHg 84%

    Tomorrow, 20 February, Wednesday

    Time Temperature Precipitation Wind Pressure Humidity
    00:00 +2°C° 0 mm 5 mps 733 mmHg 85%
    01:00 +2°C° 0 mm 6 mps 733 mmHg 86%
    02:00 +2°C° 0 mm 6 mps 733 mmHg 87%
    03:00 +2°C° 0.1 mm 6 mps 733 mmHg 86%
    04:00 +2°C° 0.1 mm 7 mps 733 mmHg 85%
    05:00 +2°C° 0.1 mm 7 mps 732 mmHg 84%
    06:00 0°C° 0.2 mm 7 mps 733 mmHg 84%
    07:00 0°C° 0.2 mm 7 mps 733 mmHg 83%
    08:00 0°C° 0.2 mm 7 mps 733 mmHg 82%
    09:00 0°C° 0.1 mm 7 mps 733 mmHg 80%
    10:00 0°C° 0.1 mm 8 mps 733 mmHg 79%
    11:00 0°C° 0.1 mm 8 mps 733 mmHg 77%
    12:00 0°C° 0 mm 8 mps 734 mmHg 77%
    13:00 +1°C° 0 mm 8 mps 734 mmHg 78%
    14:00 +1°C° 0 mm 8 mps 734 mmHg 78%
    15:00 0°C° 0 mm 8 mps 735 mmHg 76%
    16:00 0°C° 0 mm 9 mps 735 mmHg 74%
    17:00 0°C° 0 mm 9 mps 735 mmHg 72%
    18:00 -1°C° 0 mm 8 mps 736 mmHg 71%
    19:00 -3°C° 0 mm 7 mps 737 mmHg 70%
    20:00 -4°C° 0 mm 7 mps 738 mmHg 69%
    21:00 -4°C° 0 mm 6 mps 738 mmHg 69%
    22:00 -5°C° 0 mm 6 mps 739 mmHg 68%
    23:00 -5°C° 0 mm 5 mps 739 mmHg 68%

    Day after tomorrow, 21 February, Thursday

    Time Temperature Precipitation Wind Pressure Humidity
    00:00 -5°C° 0 mm 5 mps 740 mmHg 67%
    01:00 -5°C° 0 mm 5 mps 740 mmHg 67%
    02:00 -5°C° 0 mm 5 mps 740 mmHg 66%
    03:00 -5°C° 0 mm 5 mps 740 mmHg 66%
    04:00 -4°C° 0 mm 4 mps 740 mmHg 66%
    05:00 -4°C° 0 mm 4 mps 741 mmHg 66%
    06:00 -4°C° 0 mm 4 mps 741 mmHg 66%
    07:00 -4°C° 0 mm 3 mps 741 mmHg 66%
    08:00 -4°C° 0 mm 3 mps 741 mmHg 66%
    09:00 -4°C° 0 mm 3 mps 741 mmHg 63%
    10:00 -2°C° 0 mm 3 mps 741 mmHg 60%
    11:00 -2°C° 0 mm 2 mps 741 mmHg 57%
    12:00 -2°C° 0 mm 2 mps 741 mmHg 56%
    13:00 -1°C° 0 mm 2 mps 741 mmHg 54%
    14:00 -1°C° 0 mm 2 mps 741 mmHg 52%
    15:00 -1°C° 0 mm 2 mps 741 mmHg 52%
    16:00 -1°C° 0 mm 2 mps 741 mmHg 53%
    17:00 -1°C° 0 mm 2 mps 741 mmHg 53%
    18:00 -2°C° 0 mm 2 mps 741 mmHg 52%
    19:00 -2°C° 0 mm 3 mps 741 mmHg 51%
    20:00 -4°C° 0 mm 4 mps 742 mmHg 49%
    21:00 -4°C° 0 mm 4 mps 742 mmHg 52%
    22:00 -4°C° 0 mm 4 mps 743 mmHg 55%
    23:00 -5°C° 0 mm 4 mps 743 mmHg 58%

    22 February, Friday

    Time Temperature Precipitation Wind Pressure Humidity
    00:00 -5°C° 0 mm 4 mps 744 mmHg 59%
    01:00 -5°C° 0 mm 4 mps 745 mmHg 59%
    02:00 -7°C° 0 mm 5 mps 745 mmHg 59%
    03:00 -7°C° 0 mm 5 mps 746 mmHg 60%
    04:00 -8°C° 0 mm 5 mps 747 mmHg 60%
    05:00 -8°C° 0 mm 5 mps 748 mmHg 61%
    06:00 -10°C° 0 mm 5 mps 749 mmHg 61%
    07:00 -10°C° 0 mm 5 mps 750 mmHg 61%
    08:00 -11°C° 0 mm 5 mps 750 mmHg 62%
    09:00 -10°C° 0 mm 5 mps 751 mmHg 57%
    10:00 -10°C° 0 mm 5 mps 752 mmHg 53%
    11:00 -8°C° 0 mm 4 mps 753 mmHg 48%
    12:00 -7°C° 0 mm 4 mps 753 mmHg 44%
    13:00 -7°C° 0 mm 4 mps 754 mmHg 41%
    14:00 -5°C° 0 mm 3 mps 754 mmHg 37%
    15:00 -5°C° 0 mm 3 mps 754 mmHg 38%
    16:00 -5°C° 0 mm 3 mps 754 mmHg 38%
    17:00 -5°C° 0 mm 3 mps 754 mmHg 38%
    18:00 -6°C° 0 mm 3 mps 755 mmHg 39%
    19:00 -6°C° 0 mm 3 mps 755 mmHg 41%
    20:00 -7°C° 0 mm 3 mps 755 mmHg 42%
    21:00 -7°C° 0 mm 3 mps 755 mmHg 43%
    22:00 -7°C° 0 mm 3 mps 755 mmHg 44%
    23:00 -7°C° 0 mm 3 mps 755 mmHg 45%

    23 February, Saturday

    Time Temperature Precipitation Wind Pressure Humidity
    00:00 -7°C° 0 mm 3 mps 755 mmHg 48%
    01:00 -8°C° 0 mm 3 mps 755 mmHg 51%
    02:00 -8°C° 0 mm 3 mps 755 mmHg 54%
    03:00 -8°C° 0 mm 3 mps 755 mmHg 57%
    04:00 -8°C° 0 mm 3 mps 755 mmHg 59%
    05:00 -8°C° 0 mm 3 mps 755 mmHg 62%
    06:00 -7°C° 0 mm 2 mps 755 mmHg 64%
    07:00 -8°C° 0 mm 2 mps 755 mmHg 65%
    08:00 -8°C° 0 mm 2 mps 755 mmHg 67%
    09:00 -7°C° 0 mm 2 mps 755 mmHg 63%
    10:00 -6°C° 0 mm 2 mps 755 mmHg 58%
    11:00 -3°C° 0 mm 1 mps 755 mmHg 54%
    12:00 -3°C° 0 mm 1 mps 755 mmHg 50%
    13:00 -2°C° 0 mm 1 mps 755 mmHg 47%
    14:00 -1°C° 0 mm 1 mps 755 mmHg 43%
    15:00 -3°C° 0 mm 2 mps 754 mmHg 44%
    16:00 -3°C° 0 mm 2 mps 754 mmHg 46%
    17:00 -4°C° 0 mm 2 mps 754 mmHg 47%
    18:00 -4°C° 0.1 mm 2 mps 754 mmHg 56%
    19:00 -5°C° 0.1 mm 2 mps 754 mmHg 66%
    20:00 -3°C° 0.1 mm 1 mps 754 mmHg 75%
    21:00 -3°C° 0 mm 1 mps 754 mmHg 76%
    22:00 -3°C° 0 mm 1 mps 754 mmHg 77%
    23:00 -3°C° 0 mm 1 mps 754 mmHg 78%

    24 February, Sunday

    Time Temperature Precipitation Wind Pressure Humidity
    00:00 -3°C° 0 mm 1 mps 754 mmHg 78%
    01:00 -3°C° 0 mm 1 mps 754 mmHg 78%
    02:00 -3°C° 0 mm 1 mps 754 mmHg 79%
    03:00 -3°C° 0 mm 1 mps 754 mmHg 80%
    04:00 -3°C° 0 mm 1 mps 754 mmHg 81%
    05:00 -3°C° 0 mm 1 mps 754 mmHg 83%
    06:00 -3°C° 0 mm 1 mps 755 mmHg 83%
    07:00 -5°C° 0 mm 2 mps 755 mmHg 83%
    08:00 -5°C° 0 mm 2 mps 755 mmHg 83%
    09:00 -4°C° 0 mm 2 mps 755 mmHg 78%
    10:00 -3°C° 0 mm 2 mps 755 mmHg 74%
    11:00 -2°C° 0 mm 2 mps 756 mmHg 69%
    12:00 -1°C° 0 mm 2 mps 756 mmHg 67%
    13:00 +1°C° 0 mm 2 mps 756 mmHg 66%
    14:00 +1°C° 0 mm 3 mps 755 mmHg 64%
    15:00 +2°C° 0 mm 2 mps 755 mmHg 67%
    16:00 +1°C° 0 mm 2 mps 755 mmHg 71%
    17:00 +1°C° 0 mm 2 mps 755 mmHg 75%
    18:00 -1°C° 0 mm 2 mps 754 mmHg 78%
    19:00 -1°C° 0 mm 2 mps 754 mmHg 81%
    20:00 -1°C° 0 mm 3 mps 754 mmHg 85%
    21:00 -1°C° 0 mm 3 mps 754 mmHg 85%
    22:00 -1°C° 0 mm 3 mps 754 mmHg 86%
    23:00 -1°C° 0 mm 3 mps 754 mmHg 86%
    Show more